Temperature
21 21 21 21 17 14 12 12 13 12 10 10 9 8 8 7 8 7 8 8 8 9 9 10 10 10 10 11 11 12 12 12 12 12 13 13 13 13 13 13 13 13 14 14 14 14 15 15 16
22 22 22 19 14 12 12 12 12 12 10 10 9 8 8 8 8 8 7 8 9 9 9 10 10 10 10 11 11 11 11 11 12 12 12 12 12 12 12 12 13 13 13 13 13 14 14 14 15
22 22 19 13 11 11 12 12 11 11 11 10 9 8 8 9 8 7 7 8 9 9 9 10 10 10 10 10 11 11 11 11 11 11 12 12 12 12 12 12 12 12 12 12 13 13 13 14 14
22 20 16 12 10 10 10 10 12 13 11 10 9 8 8 8 7 7 8 8 9 9 9 9 10 10 10 10 10 10 10 10 10 11 11 11 11 11 11 11 12 12 12 12 12 12 12 13 13
22 18 12 11 10 10 10 10 10 10 10 9 9 8 7 7 7 7 8 8 9 9 9 9 9 9 10 10 10 10 9 9 9 9 10 10 10 11 10 11 11 11 11 11 11 12 12 12 13
21 15 12 10 11 11 10 10 10 9 9 9 8 8 6 6 7 7 8 8 8 8 8 9 9 9 9 9 9 9 8 8 8 8 8 8 8 9 8 9 10 10 10 11 11 11 11 12 12
19 12 11 11 11 11 11 10 9 8 8 8 9 7 6 6 6 7 7 8 8 8 8 8 8 8 8 8 7 7 7 6 6 6 6 6 7 7 7 8 8 8 9 9 10 10 11 11 11
20 13 12 12 11 10 10 10 9 8 8 8 8 7 5 5 6 7 7 7 7 7 7 7 7 7 7 6 6 6 5 5 5 5 5 5 5 5 6 6 6 7 7 7 8 9 10 10 11
19 12 11 13 11 10 10 9 8 8 7 7 6 6 5 6 7 8 8 7 7 7 6 6 6 5 5 5 4 4 4 4 4 3 3 3 4 4 4 5 5 5 5 6 7 7 8 9 10
15 10 11 12 11 10 10 9 8 7 6 6 5 5 6 7 7 7 7 6 6 5 5 4 4 4 3 3 3 3 3 2 2 2 1 2 2 2 2 3 3 4 4 4 5 6 7 8 9
13 10 11 11 11 11 9 9 8 7 6 6 5 6 6 6 6 6 6 5 4 4 3 3 2 2 2 2 2 1 2 1 1 1 0 -0 0 1 1 2 2 2 3 3 4 4 5 6 7
11 11 11 11 11 10 9 8 8 7 6 6 6 6 6 6 6 5 5 5 4 3 2 1 1 1 1 1 1 1 1 0 0 -0 -1 -1 -1 -1 -1 -0 0 0 1 1 2 2 3 4 5
10 10 10 11 11 10 9 8 7 6 6 6 6 6 5 5 5 5 5 4 3 2 1 1 1 1 1 1 1 0 0 -0 -1 -1 -2 -2 -2 -2 -2 -2 -2 -2 -2 -1 0 1 1 2 3
10 10 9 10 10 8 7 7 7 6 6 6 6 5 5 5 5 5 4 3 2 2 1 1 1 1 1 1 0 -0 -0 -1 -1 -1 -2 -3 -3 -3 -3 -3 -3 -4 -4 -3 -2 -1 -1 1 1
11 9 10 10 10 9 8 7 7 7 7 6 5 5 4 4 4 4 4 3 2 1 1 0 0 0 0 0 -0 -1 -1 -1 -2 -2 -3 -3 -3 -4 -4 -4 -4 -5 -5 -5 -4 -4 -2 -1 0
11 10 10 10 9 9 8 7 7 7 7 6 5 4 4 4 4 4 3 3 2 1 0 0 -0 -0 -0 -0 -1 -1 -2 -2 -2 -3 -3 -4 -4 -5 -5 -5 -6 -6 -6 -6 -6 -6 -5 -4 -2
12 11 11 10 10 9 8 6 7 7 7 6 5 4 4 4 3 3 3 3 2 1 0 -0 -1 -1 -1 -1 -1 -1 -2 -3 -3 -4 -4 -5 -5 -5 -6 -6 -7 -7 -6 -6 -7 -7 -7 -6 -5
14 13 11 10 10 9 7 6 7 7 7 6 5 4 4 4 3 3 3 2 2 1 -0 -1 -1 -1 -1 -1 -1 -2 -2 -3 -4 -5 -5 -6 -6 -6 -7 -8 -8 -8 -7 -7 -7 -8 -7 -7 -6
15 14 12 11 11 10 7 5 6 7 6 5 5 5 4 3 3 3 2 2 1 -0 -1 -2 -2 -2 -2 -2 -3 -3 -4 -4 -5 -6 -6 -7 -7 -7 -8 -8 -9 -9 -9 -9 -8 -8 -8 -7 -7
15 13 11 10 11 10 7 6 5 6 6 6 5 5 4 3 3 2 2 1 0 -1 -2 -2 -3 -3 -3 -4 -4 -5 -5 -6 -6 -7 -7 -7 -8 -8 -9 -9 -9 -10 -10 -9 -9 -9 -9 -8 -7
13 14 12 11 10 9 8 7 5 5 6 6 5 5 4 3 3 2 1 0 -1 -2 -2 -3 -3 -4 -4 -5 -5 -5 -6 -6 -7 -7 -8 -8 -9 -9 -10 -10 -10 -10 -10 -10 -10 -10 -10 -9 -8
14 13 13 11 9 8 9 7 5 4 4 5 4 4 3 3 2 2 1 -1 -2 -2 -3 -3 -4 -5 -5 -6 -6 -7 -8 -8 -9 -9 -9 -9 -9 -10 -10 -11 -11 -11 -11 -11 -11 -11 -10 -10 -9
13 13 12 12 10 9 8 7 6 4 4 3 3 3 3 2 2 1 -0 -1 -2 -3 -3 -4 -4 -5 -6 -6 -7 -8 -8 -9 -10 -10 -10 -10 -10 -10 -11 -11 -12 -12 -12 -12 -11 -11 -10 -10 -9
13 12 11 9 8 9 9 6 7 3 4 3 3 3 2 2 1 1 -0 -1 -2 -3 -4 -4 -5 -6 -6 -7 -8 -8 -9 -10 -10 -11 -11 -11 -11 -11 -11 -12 -12 -12 -12 -12 -12 -11 -11 -10 -9
11 10 10 11 10 10 10 8 7 4 3 3 3 2 2 2 1 0 -1 -2 -3 -4 -4 -5 -6 -6 -7 -8 -8 -9 -10 -11 -11 -12 -12 -12 -13 -13 -13 -13 -13 -13 -13 -12 -12 -12 -11 -10 -10
12 12 11 11 10 9 9 9 5 4 5 4 3 2 2 1 1 -0 -2 -3 -4 -4 -5 -5 -6 -7 -7 -8 -9 -10 -11 -11 -12 -12 -13 -13 -13 -13 -13 -13 -13 -13 -13 -13 -12 -12 -11 -10 -10
12 10 10 9 9 8 8 7 5 4 3 3 2 2 1 1 -0 -1 -3 -3 -4 -5 -5 -6 -6 -7 -8 -9 -10 -11 -11 -12 -12 -13 -13 -13 -13 -14 -14 -14 -14 -13 -13 -13 -12 -12 -11 -10 -9
12 10 8 9 9 9 8 8 6 3 2 2 1 1 0 -0 -1 -2 -3 -4 -5 -5 -5 -6 -7 -8 -9 -10 -11 -11 -12 -12 -13 -13 -13 -13 -14 -14 -14 -14 -14 -13 -13 -13 -12 -12 -11 -10 -9
12 12 10 8 7 8 8 8 6 3 3 1 1 1 0 -1 -2 -3 -4 -4 -5 -5 -5 -6 -7 -8 -9 -10 -11 -12 -12 -12 -13 -13 -13 -14 -14 -14 -14 -14 -14 -13 -13 -13 -12 -11 -10 -10 -9
11 11 9 9 9 7 6 7 5 3 3 2 1 0 -0 -1 -3 -4 -4 -4 -4 -5 -5 -6 -8 -9 -10 -11 -11 -12 -12 -13 -13 -13 -13 -13 -14 -14 -14 -14 -13 -13 -13 -12 -12 -11 -10 -9 -9
Wind_Speed
14 9 4 5 9 10 8 7 5 7 6 5 9 11 10 8 8 9 3 11 17 20 26 28 31 31 31 31 31 31 31 31 31 31 32 31 31 30 30 30 29 28 26 24 22 19 17 16 16
7 5 7 7 8 8 6 6 9 7 10 9 8 7 8 8 4 5 7 12 21 25 27 28 31 31 31 31 31 31 31 31 31 31 31 31 31 31 30 30 30 30 29 28 26 24 21 19 17
3 7 7 7 7 5 5 4 11 13 11 5 6 6 6 5 5 5 7 17 24 26 27 28 31 31 31 31 31 31 31 31 31 31 31 31 31 30 30 30 30 30 30 29 28 27 26 23 20
5 7 8 10 13 6 5 4 3 4 9 8 6 7 6 7 5 6 12 22 22 23 27 28 31 32 31 31 32 31 31 31 31 31 31 31 31 31 29 30 30 30 30 30 29 28 28 27 25
6 7 9 7 7 4 5 9 10 8 6 7 7 8 6 8 8 10 16 22 18 21 26 28 31 32 31 31 31 31 30 31 31 31 31 31 31 31 29 30 31 30 30 30 29 28 29 29 28
6 7 8 6 6 4 3 6 5 9 6 5 7 8 7 7 10 11 17 19 21 21 24 26 30 32 32 31 31 31 30 31 30 30 31 30 31 30 30 31 31 31 31 30 29 29 29 29 28
6 6 7 8 6 3 3 4 6 5 7 6 3 7 6 8 8 9 15 18 19 22 24 26 28 29 30 29 30 30 30 30 30 30 31 30 30 30 29 31 31 31 31 30 29 30 30 29 28
6 7 6 6 6 4 2 4 5 6 5 5 5 7 6 4 7 9 11 13 15 20 23 25 27 28 28 26 29 30 29 30 30 30 31 29 29 29 29 30 31 31 31 30 30 30 30 30 28
6 7 5 4 8 7 6 5 5 7 11 10 8 9 7 6 9 12 11 12 13 16 20 24 25 27 27 25 26 28 27 29 29 28 30 28 26 26 26 29 30 31 30 30 30 31 30 29 27
7 6 3 1 7 8 7 6 7 6 9 9 9 9 9 11 12 12 12 12 13 13 13 22 24 27 27 24 23 23 23 25 25 26 27 25 24 25 26 28 29 30 29 29 29 30 27 25 23
7 7 6 7 9 9 7 5 5 9 6 6 8 7 8 10 10 10 9 8 8 8 13 19 21 24 24 21 21 20 21 22 23 24 25 24 23 23 23 23 24 25 25 24 26 25 22 22 21
8 8 6 6 6 6 6 5 6 5 7 10 10 9 8 9 8 7 7 7 7 10 11 14 17 21 22 21 20 20 20 20 21 23 24 23 20 20 21 20 22 21 20 22 21 20 22 22 22
7 5 6 10 14 10 10 8 8 8 10 10 11 10 9 8 7 6 6 7 8 8 9 11 15 21 21 20 21 20 21 21 22 22 23 24 21 19 20 19 20 21 21 21 20 19 20 19 20
7 10 9 9 9 5 10 8 7 8 9 10 10 9 8 8 7 6 6 7 7 7 9 11 14 21 21 20 20 19 21 22 21 21 23 25 23 21 20 19 18 19 21 21 20 20 16 15 15
8 8 6 4 5 5 8 5 4 9 9 9 9 8 8 6 6 7 6 6 6 6 7 10 15 19 18 18 19 19 20 21 20 21 23 25 24 23 21 18 16 19 22 21 19 18 16 14 13
6 6 3 5 6 7 6 4 6 8 10 9 8 8 7 5 5 6 6 6 6 6 7 9 16 16 16 17 17 18 18 19 19 21 22 24 24 24 22 17 16 21 21 19 14 10 13 14 14
2 2 3 5 7 7 6 5 7 7 10 9 8 8 8 6 5 5 5 6 5 6 6 7 11 13 15 16 16 16 16 17 18 20 21 23 24 24 22 17 18 21 18 15 13 13 13 15 15
3 4 4 6 6 7 5 6 7 7 9 9 8 8 7 6 5 5 4 4 5 5 6 6 9 12 14 15 14 13 13 16 17 19 21 23 23 24 22 17 19 20 13 11 12 14 14 13 14
2 3 4 4 3 4 6 7 9 6 8 8 7 7 6 6 5 4 3 3 5 7 8 8 8 9 11 8 10 10 11 9 13 18 21 22 23 23 20 18 17 17 11 12 14 14 15 13 13
4 5 3 2 1 1 3 5 6 6 7 8 8 7 6 6 5 3 2 5 6 5 6 7 8 7 9 8 8 7 7 7 13 16 18 20 22 22 20 19 15 15 10 12 13 14 12 12 12
5 3 3 4 2 1 2 1 5 3 3 4 5 6 6 6 5 2 2 3 3 4 6 8 7 7 10 12 11 11 5 5 6 7 9 19 22 21 20 20 18 15 9 10 12 12 14 14 13
1 3 2 4 3 3 3 4 5 6 5 4 5 5 5 5 4 2 2 1 2 4 5 6 7 7 10 12 8 10 11 10 10 8 8 18 20 20 20 21 18 16 12 11 12 12 12 13 12
4 3 3 2 3 1 1 3 4 5 6 6 6 6 5 5 4 3 1 1 3 5 6 6 7 7 9 10 8 9 9 8 9 10 10 9 15 18 20 21 18 16 13 10 11 13 12 11 12
2 3 3 4 4 3 5 5 5 6 7 6 6 6 6 5 3 2 2 4 5 6 6 7 8 7 7 8 8 9 10 11 13 13 11 10 8 12 19 20 18 17 14 11 12 11 13 13 13
7 6 6 6 5 5 2 5 5 4 5 8 9 8 6 4 2 3 6 6 7 8 8 8 8 8 8 8 9 10 10 10 12 13 12 13 11 10 12 18 16 15 15 16 14 12 13 13 14
4 4 4 3 5 7 4 5 4 5 4 6 8 8 6 4 3 5 5 6 7 8 8 8 9 9 9 9 10 8 8 8 9 11 12 13 12 11 15 18 18 18 18 18 14 11 12 12 13
2 2 5 5 3 5 7 5 3 3 4 6 7 6 5 4 4 5 5 6 7 8 8 9 9 9 10 10 10 9 8 10 11 10 9 9 12 16 19 19 17 17 17 15 12 11 13 13 13
2 5 5 2 2 6 8 7 5 9 10 7 7 6 5 4 4 5 6 6 6 7 7 8 8 9 10 10 10 14 10 11 12 11 12 12 14 17 16 15 14 14 14 14 12 12 13 14 13
1 2 3 3 4 3 6 8 4 10 10 9 8 7 6 4 3 4 5 5 6 7 8 8 9 10 10 11 10 11 11 11 12 10 12 12 13 16 14 14 15 16 16 14 14 14 15 15 14
2 3 5 2 4 4 4 8 2 7 8 9 9 7 6 5 3 2 4 5 7 8 9 9 10 10 11 11 10 11 11 11 12 12 13 15 13 16 16 15 16 17 17 16 16 16 15 14 13
Wind_Direction
331 348 57 55 60 61 56 12 37 114 79 58 64 80 88 70 82 106 322 358 15 17 11 9 13 12 13 15 15 16 17 17 17 17 16 14 13 12 12 10 7 3 358 351 344 334 322 313 309
337 27 50 54 67 67 52 6 55 77 137 134 80 76 73 73 64 73 16 19 32 26 15 10 14 13 13 14 14 14 15 14 14 15 14 13 11 10 10 8 6 3 0 357 351 344 334 321 309
35 55 60 59 61 75 85 32 87 75 77 90 85 59 62 51 42 51 20 38 37 28 18 11 16 14 13 14 14 13 14 13 13 13 12 11 9 7 7 6 3 1 359 356 353 349 344 334 320
76 52 62 67 73 36 34 324 255 94 65 45 97 64 60 28 49 61 46 45 38 29 20 14 17 15 14 15 14 13 13 12 11 10 9 8 7 5 4 5 1 358 357 354 352 351 348 344 335
64 69 72 66 72 63 25 18 45 56 66 38 76 87 63 20 58 57 50 45 37 28 23 18 17 16 14 14 14 13 13 11 10 8 7 6 5 2 2 2 358 356 354 351 350 350 349 346 342
63 69 81 93 111 126 53 27 52 52 78 72 85 101 65 17 51 48 50 45 39 30 24 21 18 16 14 13 13 11 12 10 9 7 6 5 3 1 1 360 356 354 352 350 349 349 346 344 342
88 78 92 117 125 111 113 69 45 49 53 29 82 92 89 30 44 52 50 42 37 32 26 21 18 15 12 11 11 10 10 9 8 7 5 5 3 1 360 357 354 353 351 350 349 347 345 343 340
97 94 93 115 133 146 101 72 66 51 53 27 57 93 88 45 47 50 46 39 33 31 26 20 18 14 9 7 9 8 8 7 7 5 4 4 3 360 358 354 351 351 350 350 348 347 344 343 340
69 75 93 139 153 147 137 104 67 51 71 61 62 84 105 82 56 47 38 32 28 25 22 19 18 13 9 6 5 6 5 4 4 2 2 3 1 357 356 351 350 350 348 349 347 346 344 343 339
56 91 87 358 142 133 120 105 119 92 77 77 80 79 79 64 54 48 37 27 22 18 15 19 19 13 8 5 1 4 1 360 359 360 1 2 360 355 354 349 348 347 346 347 345 344 344 342 337
63 102 101 69 90 101 98 81 90 119 88 120 121 108 83 71 62 59 48 37 24 16 17 17 20 12 6 3 359 4 359 358 357 357 360 2 359 355 352 349 345 342 344 344 342 341 340 338 335
80 60 87 104 82 82 92 98 81 93 134 142 133 126 105 88 75 69 57 43 32 27 16 8 21 13 6 6 360 3 360 357 355 354 358 1 358 354 352 347 342 339 341 341 339 335 333 334 332
78 87 59 83 78 82 90 92 104 120 140 136 123 113 114 110 98 86 77 59 44 29 10 1 20 15 8 8 3 1 358 356 352 353 357 360 356 352 349 345 340 337 340 339 335 333 331 332 329
99 97 101 92 92 93 110 115 113 159 152 131 123 122 125 121 116 93 69 56 44 31 14 4 17 14 7 6 1 359 356 354 352 353 356 357 354 350 348 343 339 341 341 335 331 327 328 326 324
95 90 91 128 115 134 119 86 156 167 148 136 135 134 131 123 111 100 91 75 54 38 20 9 11 8 3 2 359 356 352 353 352 352 355 355 353 350 347 340 341 343 339 335 332 326 329 324 321
95 103 131 200 160 172 130 164 203 168 144 147 147 143 140 131 118 115 101 87 64 42 25 13 8 2 359 357 353 350 349 351 350 352 354 352 352 350 346 339 342 342 341 338 332 331 328 324 320
123 151 192 198 196 179 170 186 210 171 148 152 157 158 156 147 129 114 97 88 68 45 25 10 1 357 353 351 349 346 347 349 349 350 352 351 350 348 344 339 343 342 340 338 334 332 327 323 318
224 209 188 207 205 174 169 183 193 171 147 152 158 160 159 152 148 130 96 83 65 38 24 11 357 353 352 351 350 349 350 350 349 349 350 350 349 346 343 343 342 342 339 336 332 329 326 321 318
223 145 168 212 203 180 186 178 191 168 141 152 164 165 152 144 140 121 96 70 43 26 12 3 353 348 354 354 354 350 347 343 344 346 345 346 346 344 342 344 340 340 336 331 328 329 325 325 322
83 108 144 227 255 174 163 195 196 178 171 171 170 166 149 134 137 132 64 44 34 9 351 355 353 346 350 347 339 335 326 322 331 332 336 341 343 341 343 340 336 335 331 328 329 326 326 323 324
51 101 190 211 210 76 130 220 189 206 169 161 136 139 138 135 135 126 50 43 12 348 348 1 348 341 343 343 341 342 326 318 330 329 334 338 337 336 336 334 331 331 328 325 325 322 326 321 316
310 213 205 153 146 272 164 290 212 194 193 173 137 131 127 120 127 118 61 34 357 344 349 350 341 334 338 343 343 345 346 337 332 328 323 328 331 331 333 331 329 328 326 322 322 326 318 316 315
265 247 225 171 175 308 227 234 281 165 206 202 176 156 146 144 134 113 98 65 19 359 350 340 334 328 333 338 336 333 330 323 324 325 323 321 326 328 329 328 328 326 323 318 317 317 316 314 309
313 43 66 57 77 308 219 185 257 204 209 177 167 158 155 148 129 103 57 32 6 353 344 338 334 329 329 333 331 328 326 324 328 330 327 328 324 325 325 326 326 323 320 317 316 315 312 310 306
40 53 19 356 358 274 222 195 252 209 184 164 163 164 160 145 118 52 31 9 352 346 340 335 335 334 335 334 331 327 324 322 324 327 328 328 327 326 320 322 322 320 318 316 315 313 310 307 305
4 99 118 272 273 292 321 254 251 212 179 135 140 148 143 122 74 50 29 4 348 343 339 338 339 339 338 337 331 321 320 323 323 322 325 325 324 321 318 320 317 316 317 316 312 309 307 305 304
75 105 156 155 291 285 283 279 280 215 184 143 140 137 133 105 69 46 20 3 351 344 342 340 341 340 337 333 326 323 322 319 318 317 317 321 321 323 322 318 315 314 314 311 309 305 305 303 300
136 142 93 120 299 295 292 281 241 202 208 178 162 154 142 107 65 38 12 355 346 341 338 340 341 336 329 327 324 338 324 319 319 320 322 321 320 320 318 317 315 313 312 309 308 306 304 303 300
150 174 137 135 176 219 289 278 231 190 180 171 168 160 148 120 74 25 353 343 340 342 343 343 340 336 332 328 324 325 323 321 322 322 321 320 319 321 320 319 317 316 313 313 310 306 306 304 303
235 205 156 183 260 209 239 278 77 143 143 145 150 150 143 119 89 12 342 343 347 349 347 344 339 336 332 330 330 329 326 324 325 324 322 322 320 322 321 320 318 318 317 313 308 306 305 301 301
Height
1542 1541 1541 1542 1550 1571 1592 1597 1593 1597 1601 1604 1601 1602 1608 1613 1617 1628 1627 1620 1616 1612 1609 1604 1600 1596 1593 1589 1586 1582 1579 1576 1573 1570 1567 1564 1561 1559 1557 1554 1552 1550 1548 1547 1545 1543 1542 1541 1539
1542 1542 1543 1546 1566 1591 1603 1601 1597 1596 1600 1602 1603 1607 1609 1614 1619 1623 1623 1620 1616 1613 1609 1605 1601 1597 1593 1590 1586 1582 1579 1575 1572 1569 1566 1563 1560 1557 1555 1552 1550 1548 1545 1543 1542 1540 1539 1537 1536
1543 1543 1547 1561 1586 1601 1604 1603 1600 1599 1601 1601 1605 1609 1613 1619 1623 1624 1623 1620 1617 1613 1609 1605 1601 1597 1593 1589 1586 1582 1578 1575 1571 1567 1564 1561 1558 1555 1552 1550 1547 1545 1542 1540 1538 1536 1535 1533 1532
1545 1547 1559 1579 1599 1606 1606 1604 1599 1598 1599 1603 1606 1613 1620 1624 1625 1625 1623 1620 1616 1613 1609 1605 1601 1597 1593 1589 1585 1581 1577 1573 1569 1565 1562 1559 1556 1553 1550 1547 1544 1541 1539 1537 1534 1532 1530 1529 1528
1547 1553 1574 1596 1605 1609 1607 1602 1598 1599 1603 1607 1607 1617 1624 1627 1626 1624 1622 1619 1616 1612 1609 1605 1601 1596 1592 1588 1583 1579 1575 1571 1566 1562 1559 1555 1552 1549 1546 1543 1540 1537 1535 1533 1530 1528 1526 1524 1523
1550 1561 1587 1605 1607 1607 1607 1606 1604 1605 1607 1610 1613 1617 1628 1629 1625 1624 1622 1619 1616 1612 1608 1604 1600 1596 1591 1586 1582 1577 1572 1568 1563 1559 1555 1551 1548 1545 1541 1539 1536 1533 1530 1528 1525 1523 1521 1520 1518
1554 1571 1593 1603 1606 1607 1608 1607 1608 1609 1610 1612 1614 1619 1627 1627 1626 1624 1622 1619 1615 1612 1608 1603 1599 1594 1589 1585 1580 1575 1570 1565 1560 1556 1551 1547 1544 1540 1537 1534 1531 1528 1525 1522 1519 1517 1515 1514 1513
1558 1572 1592 1599 1604 1607 1608 1609 1612 1612 1613 1615 1616 1620 1626 1628 1626 1624 1621 1618 1614 1610 1606 1601 1597 1592 1587 1582 1577 1572 1568 1563 1558 1553 1549 1544 1540 1536 1533 1529 1526 1523 1520 1516 1514 1511 1509 1508 1507
1562 1580 1596 1597 1601 1605 1607 1610 1614 1617 1615 1617 1619 1622 1626 1626 1625 1623 1620 1617 1613 1609 1604 1600 1595 1590 1585 1580 1575 1570 1566 1561 1556 1551 1546 1541 1537 1533 1529 1525 1521 1518 1514 1511 1508 1506 1503 1501 1500
1568 1590 1597 1596 1597 1602 1607 1610 1614 1618 1618 1621 1623 1624 1625 1625 1623 1620 1618 1615 1611 1607 1603 1598 1593 1588 1583 1578 1572 1567 1562 1558 1553 1548 1543 1538 1534 1530 1526 1522 1518 1513 1509 1506 1503 1500 1498 1495 1493
1579 1592 1596 1599 1599 1603 1607 1611 1614 1617 1621 1622 1623 1624 1624 1624 1622 1620 1618 1615 1611 1607 1603 1597 1592 1586 1580 1575 1570 1565 1560 1555 1550 1545 1540 1535 1531 1526 1521 1517 1513 1509 1504 1501 1497 1495 1492 1489 1487
1586 1595 1597 1602 1603 1605 1608 1611 1615 1617 1620 1622 1622 1623 1624 1623 1621 1620 1617 1615 1611 1607 1601 1596 1590 1584 1579 1574 1568 1563 1558 1553 1548 1543 1538 1532 1527 1522 1518 1513 1509 1505 1500 1496 1493 1489 1486 1483 1481
1591 1599 1601 1603 1604 1607 1609 1613 1615 1619 1621 1622 1622 1623 1623 1622 1621 1620 1617 1614 1610 1605 1600 1594 1589 1583 1578 1573 1567 1562 1557 1552 1547 1542 1536 1531 1525 1520 1515 1510 1505 1501 1497 1493 1489 1485 1481 1478 1475
1595 1600 1605 1607 1608 1611 1613 1616 1617 1620 1621 1621 1622 1622 1622 1622 1621 1619 1616 1613 1608 1604 1599 1594 1588 1583 1577 1572 1567 1561 1556 1551 1546 1541 1535 1529 1524 1518 1513 1508 1503 1498 1494 1489 1485 1481 1476 1472 1469
1599 1604 1608 1609 1610 1613 1614 1618 1617 1618 1620 1621 1622 1622 1622 1621 1620 1618 1615 1612 1608 1603 1599 1593 1587 1582 1577 1571 1566 1561 1556 1550 1545 1539 1533 1527 1522 1516 1510 1505 1500 1495 1490 1485 1480 1476 1472 1468 1463
1602 1607 1610 1610 1610 1612 1616 1619 1617 1618 1619 1620 1621 1621 1621 1620 1619 1616 1614 1611 1607 1603 1598 1592 1586 1581 1576 1570 1565 1560 1554 1549 1543 1537 1531 1525 1519 1514 1508 1503 1497 1492 1487 1482 1477 1473 1468 1463 1458
1602 1607 1607 1609 1609 1610 1613 1617 1616 1617 1618 1619 1620 1621 1620 1619 1617 1615 1613 1610 1606 1602 1597 1591 1585 1580 1574 1569 1563 1558 1552 1547 1541 1534 1528 1522 1516 1511 1505 1500 1495 1489 1484 1479 1475 1470 1465 1460 1454
1598 1601 1605 1608 1606 1608 1611 1614 1614 1616 1617 1618 1619 1620 1619 1618 1617 1615 1612 1609 1605 1601 1596 1590 1584 1578 1572 1566 1561 1555 1550 1544 1538 1532 1526 1520 1513 1508 1502 1497 1491 1486 1481 1476 1471 1467 1462 1458 1452
1592 1596 1603 1604 1602 1605 1609 1613 1614 1615 1616 1617 1618 1618 1618 1617 1616 1614 1611 1608 1605 1600 1594 1588 1582 1576 1569 1563 1556 1550 1544 1539 1534 1529 1523 1517 1511 1505 1499 1493 1488 1483 1478 1473 1469 1464 1459 1454 1450
1591 1598 1603 1604 1602 1604 1609 1613 1613 1614 1615 1616 1616 1617 1617 1616 1615 1613 1610 1607 1603 1598 1592 1586 1580 1574 1568 1561 1555 1549 1543 1537 1532 1526 1520 1514 1508 1502 1496 1490 1485 1480 1474 1469 1465 1461 1456 1451 1449
1597 1596 1599 1602 1604 1605 1609 1612 1615 1615 1615 1616 1616 1616 1616 1616 1614 1612 1609 1605 1601 1595 1590 1585 1579 1573 1566 1560 1553 1546 1540 1534 1527 1521 1516 1510 1505 1499 1493 1487 1482 1476 1471 1466 1461 1458 1453 1449 1446
1596 1595 1595 1599 1606 1608 1607 1614 1614 1614 1614 1615 1615 1615 1615 1615 1613 1611 1607 1603 1599 1594 1589 1583 1577 1571 1564 1558 1551 1543 1536 1530 1524 1518 1512 1507 1501 1495 1489 1483 1478 1473 1467 1462 1458 1454 1450 1447 1443
1595 1593 1594 1596 1601 1606 1608 1613 1611 1614 1614 1614 1614 1614 1614 1613 1612 1609 1605 1601 1597 1593 1587 1582 1575 1569 1562 1556 1549 1542 1536 1529 1522 1516 1509 1502 1497 1491 1486 1480 1474 1468 1463 1458 1454 1449 1446 1443 1440
1593 1595 1597 1602 1606 1608 1603 1613 1603 1612 1609 1610 1612 1613 1613 1612 1610 1607 1604 1600 1596 1591 1585 1579 1573 1567 1560 1554 1547 1541 1534 1526 1519 1511 1504 1498 1492 1486 1481 1476 1470 1464 1459 1454 1449 1445 1441 1438 1435
1596 1602 1609 1606 1611 1605 1598 1604 1602 1606 1605 1606 1609 1611 1611 1610 1608 1605 1602 1598 1594 1588 1583 1577 1571 1564 1558 1551 1545 1539 1532 1524 1517 1509 1501 1494 1487 1481 1476 1471 1466 1460 1454 1449 1444 1440 1436 1433 1430
1599 1602 1613 1615 1617 1610 1598 1599 1605 1604 1605 1606 1607 1609 1609 1608 1606 1604 1600 1596 1592 1586 1581 1575 1568 1562 1555 1549 1542 1536 1530 1522 1515 1507 1500 1492 1485 1478 1473 1467 1462 1456 1450 1444 1439 1435 1431 1428 1425
1599 1605 1606 1616 1616 1616 1605 1600 1604 1604 1605 1606 1607 1607 1607 1606 1604 1602 1599 1595 1590 1585 1579 1573 1566 1560 1554 1547 1540 1533 1527 1520 1512 1504 1497 1490 1483 1476 1470 1463 1457 1451 1445 1440 1435 1430 1427 1424 1421
1599 1603 1612 1613 1616 1615 1606 1599 1598 1602 1602 1604 1605 1605 1605 1605 1603 1601 1597 1593 1588 1583 1577 1571 1565 1559 1552 1546 1539 1532 1525 1517 1509 1502 1494 1487 1480 1473 1467 1460 1453 1447 1441 1435 1430 1426 1422 1419 1416
1599 1601 1604 1613 1617 1618 1614 1598 1591 1593 1595 1600 1602 1603 1604 1603 1601 1599 1595 1591 1586 1581 1575 1569 1563 1557 1550 1543 1536 1529 1522 1514 1507 1500 1493 1486 1479 1472 1464 1457 1450 1443 1436 1431 1426 1422 1418 1415 1413
1598 1598 1603 1611 1611 1616 1619 1602 1592 1591 1594 1597 1600 1602 1602 1601 1600 1597 1593 1589 1584 1578 1573 1568 1561 1555 1548 1541 1534 1527 1520 1513 1506 1499 1492 1485 1478 1470 1463 1455 1447 1440 1433 1426 1422 1417 1415 1412 1410